Wind_Speed
109 115 118 117 114 110 106 101 96 93 94 93 93 92 89 87 86 85 84 83 79 79 82 82 82 85 87 87 89 86 76 69 71 75 74 70 67 66 62 61 59 56 54 52 53 55 55 53 51 48 45 44 44 42 41 41 42 43 42 41 39 38 38 38 39 38 37 36 35 37 40 40 41 42 42 42 43 44 44 45 46 47 47 45 42 39
104 108 111 113 112 110 108 105 102 101 100 98 96 93 90 87 86 85 84 85 80 76 79 79 81 86 87 89 89 84 77 72 74 77 73 69 68 66 63 61 59 58 55 52 51 53 54 53 51 48 45 44 44 43 43 43 44 44 42 40 39 39 39 39 39 38 37 35 34 37 41 41 41 43 44 44 45 46 46 47 48 48 47 44 41 38
98 100 101 105 109 112 112 110 107 105 103 100 96 93 91 87 86 86 85 86 81 75 78 79 80 84 85 88 89 84 78 75 78 80 74 70 69 67 65 63 60 58 56 53 53 54 54 53 51 48 46 45 45 44 44 45 45 43 42 40 40 41 41 40 40 39 38 37 37 40 43 43 43 45 47 47 47 47 46 46 45 45 43 42 42 39
92 93 95 100 108 115 116 114 110 107 105 102 98 94 92 88 86 86 85 86 81 73 76 79 80 83 85 88 89 83 79 78 80 81 76 72 70 68 66 64 61 58 55 53 55 56 56 54 51 48 46 46 46 45 46 46 45 43 41 41 42 42 42 42 42 42 41 41 41 43 45 46 46 47 47 46 45 43 42 42 42 42 43 44 45 42
86 88 91 97 106 114 117 116 113 110 108 104 99 95 93 89 86 86 84 85 81 75 75 80 81 83 84 85 86 82 80 81 81 80 75 73 71 69 67 64 61 58 55 54 54 56 57 55 51 48 47 47 47 47 47 46 44 42 41 41 43 43 43 44 44 45 44 44 45 46 47 46 46 47 46 44 43 43 43 44 45 46 47 46 46 43
83 83 90 97 103 108 113 116 115 112 109 105 99 96 93 90 87 86 86 85 83 77 75 80 81 80 80 81 83 81 80 82 82 79 75 72 71 70 68 66 62 58 56 55 55 56 56 55 52 49 48 48 48 49 49 46 44 43 42 43 44 45 46 46 46 48 47 47 48 48 47 46 46 47 47 46 46 47 47 47 47 46 45 44 44 41
81 82 91 97 98 102 107 112 114 113 111 105 99 96 94 92 89 87 86 84 82 77 75 80 82 78 78 79 79 80 79 81 81 78 75 72 70 69 67 65 62 59 56 54 55 57 56 54 53 52 51 50 51 52 50 47 45 44 43 45 47 47 45 43 43 46 45 44 45 45 44 42 42 44 45 46 46 46 46 45 44 43 42 42 40 36
78 82 91 94 94 98 103 108 112 112 111 106 100 98 96 92 89 86 86 83 80 78 79 83 83 80 78 75 76 79 79 80 80 77 74 72 70 68 66 64 61 59 57 56 57 59 58 56 55 53 52 52 53 52 50 47 45 44 44 47 49 47 44 40 40 41 39 38 39 38 36 36 40 42 43 44 43 43 44 43 43 42 40 38 36 32
76 81 87 89 91 95 99 104 109 112 110 106 102 100 97 92 88 85 85 83 81 82 84 84 83 80 75 72 74 77 77 78 78 75 73 71 69 68 66 62 61 59 59 59 60 61 60 57 55 53 52 53 53 51 50 46 44 45 46 49 48 45 43 42 40 39 37 36 34 29 26 29 35 37 38 40 41 41 41 40 39 39 37 35 33 32
74 79 83 86 88 92 96 101 107 111 110 106 103 101 98 94 91 88 86 85 84 85 85 83 81 77 72 71 73 73 72 72 73 73 72 71 69 67 65 63 62 60 59 59 61 61 59 56 54 52 52 53 52 51 49 44 43 46 46 47 47 43 42 44 40 38 37 35 30 25 23 25 29 32 36 40 39 36 35 34 34 35 35 33 31 32
73 77 81 83 84 87 93 98 105 109 108 107 105 102 100 96 93 90 88 89 88 86 83 81 78 74 72 72 70 67 66 67 69 71 71 70 68 66 65 64 63 61 60 61 62 60 56 53 51 52 53 53 52 50 47 43 43 46 46 47 48 43 41 42 40 39 40 37 31 28 28 30 34 38 41 39 35 33 33 31 31 32 34 34 34 35
72 76 78 80 82 85 90 95 101 106 108 108 106 105 102 98 95 93 91 93 90 83 79 78 76 75 72 68 64 62 63 65 66 67 67 66 66 66 66 65 64 62 62 64 62 58 54 52 52 54 54 53 51 49 46 43 44 46 47 48 47 43 41 44 45 45 44 43 39 37 37 37 39 42 42 39 36 35 34 32 33 34 35 36 37 39
68 72 74 78 81 83 87 92 99 107 110 109 108 107 104 100 98 95 95 93 84 76 76 77 75 74 68 64 63 62 61 62 63 64 64 64 65 65 65 65 64 64 64 63 62 57 54 54 55 56 55 53 51 49 46 44 45 47 48 48 46 43 43 46 49 48 47 47 47 47 45 42 40 42 42 41 40 38 37 36 37 38 39 38 38 39
62 68 72 77 80 81 85 91 99 107 110 109 109 106 103 101 99 96 94 86 76 74 77 76 74 71 66 65 64 60 59 61 62 62 62 63 63 62 63 64 64 65 65 63 60 57 55 56 58 57 55 53 52 49 47 46 47 49 48 49 48 46 45 46 49 49 48 48 49 49 48 44 41 42 42 41 40 38 37 38 39 40 39 36 35 38
58 64 68 72 76 78 83 90 97 104 107 107 106 103 101 99 95 89 83 77 74 75 76 75 73 70 66 65 62 58 58 61 60 59 60 62 62 60 61 62 62 62 63 61 58 56 56 57 58 57 55 54 52 50 48 48 50 50 49 49 48 46 45 46 48 50 49 49 49 48 47 45 44 44 43 42 41 39 39 40 40 40 37 35 35 38
55 61 65 70 73 75 81 88 94 100 104 105 104 101 98 95 88 83 78 76 76 76 75 74 71 68 67 64 62 59 58 59 58 57 58 58 57 58 60 60 59 57 55 55 55 55 56 57 57 57 55 54 52 50 49 50 51 51 50 49 47 45 45 46 48 49 50 50 49 49 48 46 45 45 45 45 44 42 41 41 42 43 43 41 41 43
53 59 63 67 71 75 80 86 90 95 101 104 103 101 96 92 87 84 82 81 80 78 76 73 70 70 68 64 62 58 56 58 57 56 57 56 54 56 56 55 55 53 49 48 50 51 53 55 56 55 54 53 51 49 49 50 51 51 49 47 45 45 45 46 47 46 46 46 47 48 48 47 45 44 44 44 43 41 40 40 42 45 47 47 46 46
52 58 61 63 68 72 78 83 88 95 102 103 101 98 94 91 90 87 85 85 83 79 75 72 71 70 65 62 61 56 53 56 56 55 56 55 53 53 52 50 49 48 46 45 47 49 50 52 52 52 52 51 50 49 48 49 49 49 46 44 44 44 44 43 42 41 41 41 43 45 46 46 45 44 43 43 41 39 38 39 42 45 46 47 48 48
51 57 61 64 67 72 77 81 88 98 104 100 96 94 93 93 92 90 88 85 80 77 74 71 70 68 64 62 59 53 53 57 56 55 54 53 51 50 50 49 47 45 43 41 44 48 48 49 50 50 51 50 48 47 47 47 47 45 43 43 43 43 41 40 39 39 39 39 41 42 43 44 44 43 41 40 40 39 39 40 42 44 45 46 48 48
49 55 59 63 68 73 79 83 89 97 101 98 97 97 96 94 91 88 85 81 77 75 73 70 69 67 64 61 58 54 56 59 57 55 54 51 49 48 49 49 46 44 41 41 44 46 47 49 50 50 49 47 46 45 44 44 44 42 41 41 41 40 39 39 39 39 39 38 39 41 42 42 41 42 41 41 40 40 40 40 41 43 44 45 46 47
48 53 58 63 68 73 79 83 88 94 98 100 101 101 100 98 94 88 83 79 77 75 72 70 69 66 63 61 58 57 59 60 58 56 54 52 50 49 49 46 44 42 42 45 48 47 47 49 48 47 46 44 43 41 41 41 40 40 39 39 39 39 39 39 39 39 39 38 39 42 44 43 42 42 43 43 43 41 40 39 40 41 43 44 45 46
48 54 58 63 67 71 76 82 88 94 99 102 101 100 100 97 92 87 82 79 77 73 70 69 67 64 63 62 59 58 60 60 57 55 54 53 51 49 45 42 42 42 43 46 49 49 49 47 45 44 43 41 41 40 39 39 38 38 39 38 39 39 38 39 39 39 38 38 40 42 43 44 44 45 45 46 46 44 43 42 41 42 43 44 45 47
50 55 58 61 65 70 76 83 90 95 99 102 101 98 96 92 86 82 79 76 73 70 68 68 66 65 65 63 59 58 60 59 57 56 54 53 52 49 44 42 42 43 44 47 49 49 48 46 43 42 41 40 39 38 38 38 37 39 39 39 39 39 38 39 39 40 38 37 39 41 42 43 45 46 46 46 46 45 45 45 45 45 45 46 48 49
52 56 59 62 67 72 77 83 89 95 99 101 100 97 93 89 84 80 77 74 72 70 69 68 67 67 66 62 59 59 61 60 58 57 56 54 52 49 46 44 42 41 42 47 50 49 46 44 42 41 41 40 39 39 39 38 38 39 39 40 39 39 39 39 40 42 41 38 40 42 43 44 45 45 45 45 45 44 44 45 45 46 47 47 49 50
53 57 60 64 68 74 80 85 90 95 98 99 99 97 92 88 84 82 79 77 74 71 70 68 66 65 64 62 61 62 64 63 60 59 58 55 51 48 45 43 41 39 42 48 51 48 45 43 42 41 41 41 40 40 40 39 39 39 40 40 39 39 40 39 41 43 42 41 43 45 46 46 45 44 44 44 44 44 44 43 43 44 45 46 47 48
54 57 60 63 67 71 77 82 87 91 96 98 99 96 92 87 84 83 81 79 76 72 69 69 67 65 64 63 64 65 65 62 60 59 58 54 51 49 46 45 43 42 46 51 51 47 45 43 41 42 42 42 41 41 40 39 38 39 39 40 40 40 40 40 42 43 42 43 45 46 46 45 44 44 44 44 43 43 43 43 43 43 44 44 45 46
49 53 56 59 63 67 71 75 78 83 90 95 95 92 88 85 83 81 79 77 74 71 69 69 67 67 67 65 65 66 64 61 57 57 56 53 51 50 48 48 46 44 47 51 49 46 43 42 42 43 43 42 41 40 40 39 39 39 40 40 41 41 41 41 42 43 44 44 45 45 45 45 44 44 43 43 43 43 43 42 42 42 42 42 43 44
43 47 51 55 59 65 71 74 77 83 89 91 89 87 87 86 83 80 76 72 70 69 69 69 67 68 67 66 66 65 63 61 57 56 54 51 50 49 48 47 45 43 46 48 46 45 43 43 43 44 43 41 41 41 40 39 39 40 40 41 42 42 41 42 42 43 44 44 44 44 45 44 44 43 43 43 42 42 41 41 40 40 40 41 41 42
42 44 47 52 58 64 70 75 80 86 89 89 89 89 88 86 82 79 75 72 70 69 69 69 67 68 68 67 67 66 64 61 59 56 53 50 49 48 47 47 45 46 50 50 47 46 45 44 45 44 43 42 41 41 41 40 40 40 40 42 42 42 42 42 43 43 43 43 44 44 44 44 44 44 43 42 42 41 40 39 39 39 39 39 40 40
45 46 48 54 60 66 69 72 78 84 86 88 89 88 85 81 78 76 74 73 72 71 71 72 70 70 69 68 67 66 64 61 59 56 53 51 50 48 47 48 48 50 53 51 48 47 46 45 45 44 42 42 41 42 41 41 41 40 41 42 42 42 42 43 43 43 43 44 44 44 45 44 44 44 43 42 42 41 40 38 38 38 39 39 39 40
45 49 53 57 60 63 65 70 76 82 86 87 86 83 81 80 78 75 73 70 69 69 70 70 68 67 68 67 66 64 62 60 57 55 52 51 52 50 49 50 52 53 53 50 47 46 46 46 45 43 42 42 42 42 41 41 41 40 41 42 42 42 43 44 44 44 44 45 45 45 45 45 44 44 43 42 41 40 38 38 37 38 39 39 40 41
43 47 52 57 60 62 66 71 76 81 84 85 83 82 80 78 75 73 70 68 68 68 68 65 63 64 65 65 63 61 60 60 57 55 54 52 52 52 51 52 54 55 52 49 47 47 47 46 44 43 43 43 42 42 41 41 41 41 41 42 42 42 43 44 44 45 45 45 45 46 45 45 44 43 42 41 40 39 38 38 38 39 40 41 41 41
43 47 52 57 60 64 69 74 78 80 82 82 80 79 77 74 72 70 69 68 69 69 68 65 64 64 64 64 62 60 60 59 57 56 55 54 53 53 52 53 54 52 50 48 48 47 46 45 43 43 42 42 41 41 40 41 41 41 42 42 42 43 43 44 45 45 45 45 45 45 45 44 43 42 41 40 39 38 38 38 39 40 41 41 42 42
44 48 54 58 60 64 70 74 78 79 79 79 77 76 74 72 71 70 68 67 68 68 68 66 64 64 64 63 63 61 59 59 57 56 55 54 53 53 53 53 51 49 48 48 48 47 45 43 42 42 42 42 41 41 41 41 41 41 42 42 42 43 44 44 45 45 45 45 45 44 44 43 42 41 40 39 39 38 38 39 40 41 42 42 42 42
43 48 53 56 59 65 70 73 76 77 76 76 75 74 73 72 71 70 69 67 68 69 68 66 64 64 64 63 62 61 59 57 56 55 54 54 54 54 54 52 50 49 48 48 47 46 44 43 42 43 43 43 42 41 41 41 41 41 42 42 43 44 44 44 44 44 44 44 44 43 43 42 41 40 40 39 39 39 39 40 41 42 42 42 42 42
42 48 53 56 60 65 69 72 74 74 74 74 74 73 72 71 71 70 69 68 69 69 68 67 66 66 64 63 61 60 58 56 54 53 53 55 56 55 52 51 50 49 48 47 46 45 44 44 44 44 43 42 42 42 42 41 41 41 42 42 42 42 42 41 41 42 43 43 42 42 41 41 40 40 40 40 40 41 41 42 42 42 43 43 42 42
42 48 53 57 61 65 69 72 73 73 74 74 73 72 71 70 69 68 68 69 69 69 68 68 66 64 63 62 60 58 57 55 54 53 53 54 55 53 50 50 50 48 47 46 45 44 43 43 43 43 43 43 42 42 42 41 40 40 40 41 41 40 40 40 40 41 41 41 41 41 41 40 40 40 41 41 42 42 43 43 43 43 43 43 43 43
43 48 52 57 62 67 71 73 73 74 73 72 71 71 70 69 69 69 70 70 69 69 69 66 63 61 61 61 60 58 56 54 52 52 52 52 54 53 51 50 49 48 47 46 45 44 43 44 44 44 44 44 43 42 41 40 39 39 40 40 41 40 40 40 40 40 40 40 40 40 41 41 41 42 42 43 44 44 44 44 44 43 43 43 43 43
43 48 53 58 63 69 73 74 74 73 72 71 70 70 69 69 69 69 70 70 71 71 68 64 61 60 61 62 60 58 56 54 51 51 52 53 54 53 51 50 49 48 48 47 46 45 45 46 46 45 45 43 42 40 39 39 39 39 40 41 41 41 41 41 40 40 40 40 40 41 41 42 42 43 43 44 45 45 45 45 44 44 44 43 43 44
44 49 54 60 65 69 72 73 73 72 71 70 70 69 70 69 69 70 70 70 71 69 65 62 62 61 61 61 59 56 55 54 53 52 53 55 54 52 51 51 50 49 49 49 48 48 48 47 47 46 45 43 41 40 39 40 40 41 41 41 41 41 42 41 40 40 40 41 41 41 42 42 43 43 44 45 46 46 46 46 45 45 45 44 44 44
45 49 54 60 66 70 71 71 71 70 70 70 70 70 69 68 67 68 68 69 69 66 64 63 62 62 63 61 58 56 56 57 58 56 54 54 54 54 52 52 51 51 51 50 50 49 48 48 47 46 45 43 42 41 41 41 41 42 42 42 42 42 41 41 41 41 42 42 42 42 42 43 43 44 45 46 47 47 47 47 46 46 45 45 45 45
45 50 55 60 66 69 70 70 70 70 70 70 71 70 69 67 66 66 66 67 67 65 65 65 64 64 63 61 58 59 60 60 60 58 55 53 53 54 54 53 52 52 51 51 51 50 49 49 48 47 45 44 44 43 43 42 42 42 42 43 43 42 41 42 42 42 43 43 43 43 43 43 43 44 46 47 48 48 48 47 47 47 47 46 47 47
44 49 54 59 64 68 69 70 69 69 69 69 68 68 67 65 64 64 64 65 65 65 65 65 65 65 63 60 58 61 62 61 60 58 57 56 54 54 54 53 52 52 53 53 53 52 51 50 49 48 46 46 46 45 44 44 43 43 43 43 43 42 42 42 42 42 43 43 44 44 44 44 45 46 47 48 49 49 48 48 48 48 48 48 48 47
42 49 54 58 62 67 69 70 69 68 67 65 63 63 64 64 62 62 63 64 65 64 63 64 66 66 62 59 61 63 62 61 60 60 59 58 57 56 56 55 54 54 55 55 54 53 52 51 50 49 49 48 48 47 46 46 45 45 44 44 43 43 43 43 43 43 43 44 45 45 45 46 47 48 49 50 50 49 49 48 48 49 49 49 48 47
41 47 53 57 62 66 68 69 68 67 64 62 60 61 63 63 63 62 62 63 64 64 63 63 64 65 62 58 59 61 62 61 62 62 61 60 59 59 58 57 56 57 57 56 55 54 54 53 53 52 52 51 50 49 48 48 47 46 46 45 45 44 44 44 44 44 44 44 45 46 47 47 48 49 50 50 50 50 50 50 49 50 50 50 49 48
40 45 51 56 61 65 68 69 69 67 64 60 58 60 62 62 63 63 61 60 61 63 64 64 63 64 63 60 58 58 59 60 61 62 63 62 61 60 60 59 59 59 57 56 55 54 53 53 53 53 53 52 52 51 50 50 49 49 48 47 47 46 45 45 45 44 45 45 46 47 48 49 49 50 51 51 51 51 52 51 51 51 51 51 50 49
38 43 49 54 59 63 66 68 68 68 66 62 59 60 62 62 62 63 61 59 58 60 63 64 64 64 64 62 60 58 56 57 59 61 62 62 61 60 60 60 60 60 58 58 57 56 55 55 54 53 53 53 53 53 52 52 52 51 50 50 49 48 47 46 46 45 46 46 47 48 49 50 50 51 51 51 51 52 52 53 52 52 52 52 52 51
35 41 46 51 57 62 65 66 67 67 65 62 59 60 63 64 63 62 61 58 58 60 62 63 64 64 64 63 62 61 59 59 61 62 62 61 61 60 60 60 60 60 59 59 59 58 58 57 56 55 54 54 54 54 54 54 54 53 52 51 51 50 49 48 48 47 47 48 48 49 50 51 51 51 52 52 52 53 53 53 53 53 54 54 53 53
34 39 43 48 54 58 63 65 66 66 65 62 58 58 62 65 65 64 62 59 55 57 61 64 64 64 64 64 63 63 63 63 63 63 62 62 61 61 61 61 61 60 60 59 59 59 58 57 57 56 55 55 55 55 56 56 55 55 54 54 53 52 51 51 50 49 49 49 50 51 52 52 52 52 52 52 53 54 54 55 54 54 55 55 55 54
33 36 39 46 51 56 60 63 64 66 67 64 58 57 60 64 65 66 65 62 58 55 57 61 64 64 64 64 64 63 63 63 63 62 62 61 61 62 62 62 61 61 60 59 59 58 57 57 56 56 56 56 57 57 57 58 57 57 57 56 56 55 54 54 53 52 52 52 52 53 53 53 53 53 53 53 54 55 56 56 56 56 56 56 55 55
33 34 35 41 48 53 58 62 64 66 68 67 62 58 57 60 64 66 67 65 62 58 56 58 61 63 64 65 65 63 62 63 62 62 61 62 62 63 64 64 62 61 60 60 59 58 57 57 56 56 56 57 57 58 58 58 58 58 58 58 58 57 57 57 56 56 55 55 55 55 55 54 54 54 55 54 55 56 57 57 57 57 57 56 56 55
Wind_Direction
229 228 228 228 227 227 227 226 226 225 225 224 223 223 223 224 225 225 226 225 222 224 226 223 222 223 225 226 229 230 226 226 232 233 232 232 233 235 235 236 237 235 235 238 242 244 245 246 247 247 248 248 250 250 250 250 249 250 252 254 256 257 258 259 261 263 265 268 272 273 271 270 271 272 272 274 276 278 280 281 281 280 282 283 284 284
228 228 227 227 226 226 225 224 224 224 224 224 223 223 223 223 224 224 225 226 221 221 226 223 222 223 224 226 228 229 226 225 231 233 231 231 233 234 234 235 235 235 234 236 240 244 244 245 246 247 247 249 250 250 249 248 249 251 254 257 258 259 260 262 264 265 268 270 269 269 270 271 272 273 274 277 278 280 281 282 282 282 283 284 283 285
228 227 226 225 225 224 224 223 222 222 223 224 223 222 223 222 224 224 224 226 221 218 224 224 222 224 224 226 227 227 225 225 230 233 230 230 232 232 233 233 234 235 234 235 238 242 244 245 246 246 247 248 249 250 249 248 251 254 257 259 261 262 264 265 266 268 268 269 267 267 268 271 272 273 276 278 279 280 281 282 282 282 282 282 283 287
227 226 225 223 223 222 222 222 221 221 222 223 222 221 222 221 222 224 223 226 222 217 223 225 223 223 223 224 225 225 225 225 229 232 230 230 232 232 232 233 233 235 235 235 238 241 243 244 245 245 246 248 248 249 249 250 253 256 259 262 263 264 266 266 267 268 268 268 267 267 269 271 272 274 275 276 277 278 279 280 281 280 281 283 286 289
226 224 223 221 221 221 220 221 220 220 221 222 221 220 221 220 221 223 222 224 223 216 220 226 224 223 224 225 225 223 224 225 228 231 230 230 232 233 233 234 234 235 235 235 237 240 243 243 244 245 246 247 248 249 249 252 254 257 259 262 263 264 264 265 267 268 268 268 267 268 269 270 272 274 274 275 276 276 276 277 279 280 283 286 289 290
224 221 221 221 220 219 219 219 219 219 220 221 220 219 220 219 219 222 222 222 222 216 218 226 226 224 225 225 225 223 223 226 228 229 230 230 232 233 234 234 235 235 235 236 238 240 242 243 243 244 245 246 247 248 250 252 255 256 257 259 261 263 264 268 270 269 269 268 268 268 268 270 272 273 273 275 276 276 276 277 279 283 286 288 289 287
220 217 219 220 218 217 217 217 218 218 219 219 219 219 219 218 218 220 221 221 221 217 216 225 227 224 224 224 224 224 223 226 228 228 229 229 231 233 234 234 235 235 235 236 238 239 240 242 242 243 244 245 247 249 251 253 255 257 259 260 261 262 266 271 270 267 267 267 267 268 268 272 273 272 273 274 275 276 278 280 283 285 287 287 284 277
218 216 219 219 216 216 215 215 216 216 218 217 217 217 218 218 217 219 221 220 220 218 216 222 225 223 223 223 223 224 222 224 227 228 229 229 231 232 233 234 234 235 235 236 237 238 240 242 242 243 244 246 248 250 252 254 257 259 260 260 260 262 265 264 263 264 267 268 270 271 269 270 270 269 271 273 274 276 279 281 283 284 285 282 274 266
218 217 219 218 215 214 213 213 213 214 216 215 215 216 216 216 216 217 220 220 218 218 217 219 223 223 222 222 223 224 222 224 226 227 228 229 230 232 233 233 233 234 235 235 237 239 240 241 243 244 245 247 249 250 252 254 257 258 256 257 259 260 260 257 259 264 266 268 271 269 265 264 264 265 269 272 276 278 278 279 280 281 280 275 267 262
218 217 217 218 215 213 212 211 211 212 213 213 213 215 215 214 215 215 217 219 217 218 218 218 222 223 222 223 224 224 224 224 227 227 228 229 229 230 232 232 232 233 233 234 237 239 240 241 243 245 246 248 249 250 251 251 253 253 253 254 255 255 255 254 257 263 265 268 267 261 259 261 262 268 274 277 279 280 279 281 281 277 273 270 265 262
218 217 216 216 215 212 211 209 209 210 210 211 211 213 213 213 213 213 215 218 216 216 217 218 220 222 223 223 224 224 224 225 226 227 228 229 229 230 231 231 232 232 233 235 237 239 239 241 243 244 245 247 247 248 249 246 246 248 249 251 252 250 250 253 257 262 265 267 264 259 262 266 268 273 276 276 277 282 283 282 280 274 269 267 267 266
216 215 214 214 213 211 210 208 207 208 209 210 210 211 212 211 212 212 214 217 216 214 216 218 218 221 222 223 223 223 223 224 225 226 227 228 229 230 231 232 232 233 234 236 237 238 239 240 242 243 244 245 246 247 247 244 244 247 248 250 252 250 248 253 259 261 263 265 265 266 270 273 273 273 271 270 276 283 283 279 275 273 271 269 268 269
214 214 212 211 211 210 208 206 205 206 207 208 209 210 210 210 211 211 213 216 215 213 216 218 218 220 221 222 223 221 222 224 225 225 226 226 228 228 229 231 232 233 234 235 237 238 239 240 241 243 244 245 246 247 247 246 246 248 248 250 252 252 250 253 258 260 260 262 264 268 272 273 271 268 267 270 277 282 281 277 273 270 271 271 270 271
212 212 210 209 209 207 206 205 204 204 205 206 208 209 210 210 210 211 213 214 214 213 216 218 218 218 218 220 222 220 221 224 224 224 225 225 227 227 227 229 230 231 233 235 237 237 238 239 241 243 244 245 247 247 248 248 249 250 250 251 253 254 253 253 256 258 258 259 261 265 268 268 266 265 266 270 277 280 279 276 272 269 270 271 272 274
211 211 209 208 208 205 203 203 204 203 204 205 207 208 209 211 211 212 213 213 214 215 216 217 217 217 217 220 221 218 220 223 223 224 225 225 227 227 227 228 229 232 234 236 238 238 239 240 241 243 245 246 247 248 249 250 251 252 252 253 254 255 255 255 256 257 258 258 260 262 263 264 264 264 266 270 276 280 278 273 268 266 265 266 268 270
208 209 207 207 206 204 202 202 203 203 203 204 206 206 209 210 210 211 211 211 213 214 215 216 216 215 216 218 219 217 218 222 222 222 225 225 226 227 228 230 232 235 237 238 239 240 240 241 243 244 245 247 248 249 250 251 252 253 253 254 256 256 257 256 255 255 256 258 260 261 263 264 265 264 266 269 274 277 276 271 267 265 264 265 266 266
204 205 205 205 204 202 201 201 201 201 202 203 204 205 206 208 208 208 209 209 211 212 213 214 214 215 215 216 218 216 217 222 221 221 224 224 224 226 229 231 233 235 237 238 238 240 241 241 243 244 245 246 247 248 249 250 251 252 253 255 256 255 254 253 253 255 256 258 258 259 261 264 265 266 267 270 273 274 272 269 266 264 265 266 266 266
200 202 203 202 202 201 200 200 198 199 202 203 202 203 204 207 207 207 208 209 209 211 211 212 214 214 214 215 218 215 217 222 222 222 224 224 224 226 228 229 230 232 234 236 237 239 239 240 241 242 243 243 244 244 245 247 249 251 252 253 253 252 251 251 253 254 254 255 257 258 259 262 264 266 269 272 273 270 269 268 264 262 263 264 265 265
197 198 199 199 199 198 199 199 196 197 200 201 200 202 204 207 207 207 207 208 208 210 210 211 213 213 212 214 216 214 216 221 221 221 223 224 225 226 227 228 228 228 230 233 236 236 235 236 237 238 239 240 240 241 243 245 247 249 250 250 249 250 251 252 252 251 251 254 258 260 261 262 264 266 269 272 271 268 268 267 264 263 263 263 263 265
196 196 197 197 196 195 196 197 196 196 198 198 199 201 203 206 208 208 208 207 208 210 210 210 212 211 210 213 214 211 215 219 219 219 221 222 223 223 224 225 225 225 225 228 232 232 232 233 234 236 238 239 239 240 241 243 245 247 247 246 247 248 248 250 251 251 253 255 258 260 262 263 264 266 268 269 269 269 269 267 265 263 262 262 264 265
193 194 195 195 195 194 194 194 195 196 196 196 198 200 202 204 205 206 207 206 207 209 209 210 212 210 209 211 212 211 214 218 217 217 218 218 218 220 222 222 223 223 221 225 230 231 231 232 233 236 237 237 238 239 239 241 243 244 244 244 245 245 245 247 250 251 253 255 256 258 260 262 265 268 268 268 267 268 267 265 264 264 263 263 264 265
190 192 195 194 193 194 192 191 194 195 195 196 198 200 202 203 204 204 204 204 206 207 207 210 211 210 209 210 211 212 216 218 217 217 218 217 217 218 217 218 220 221 221 225 230 230 230 231 232 234 235 236 236 237 238 239 240 241 242 242 243 243 244 246 249 252 255 257 258 259 259 261 265 269 269 268 267 266 263 262 264 267 267 266 266 267
188 190 193 193 192 192 192 191 192 194 195 195 198 201 202 203 203 204 204 204 204 205 207 209 210 209 209 209 210 213 217 218 217 218 218 218 217 216 214 212 214 217 222 227 231 231 231 231 232 234 235 236 236 236 237 237 237 240 241 242 243 243 244 245 248 251 254 256 258 258 260 263 267 268 268 268 268 267 264 263 264 266 267 267 268 268
186 188 190 192 191 190 191 191 191 193 194 195 196 199 201 201 202 203 204 203 203 204 206 208 209 209 208 207 209 213 216 217 216 217 218 217 216 215 213 213 213 216 222 229 232 231 231 232 232 234 235 235 235 235 235 235 236 239 242 244 244 245 246 246 247 250 252 252 253 257 262 267 268 267 268 268 269 268 267 266 265 266 266 267 268 268
184 188 189 190 191 190 190 191 191 192 193 194 196 197 199 200 201 202 202 202 202 203 205 207 208 210 208 207 209 213 216 215 214 216 217 216 215 214 213 214 214 214 220 228 231 231 232 232 232 233 234 234 234 234 235 236 237 240 243 246 246 247 248 248 249 252 253 252 254 259 265 267 267 267 268 269 269 269 269 269 268 268 268 268 269 270
185 188 189 190 191 191 191 191 192 191 191 194 196 196 196 198 200 202 202 200 200 201 204 206 207 208 208 208 210 214 216 216 215 217 218 216 215 213 211 212 213 213 220 228 231 231 231 232 232 233 233 234 235 236 237 238 239 241 244 246 247 247 248 249 250 252 253 255 258 262 265 266 267 268 269 269 270 270 270 270 271 270 271 271 272 272
187 188 189 190 189 190 191 193 193 191 191 194 196 196 195 197 200 203 203 201 199 200 203 205 206 207 207 208 211 215 217 216 215 218 218 217 217 216 214 214 216 218 224 229 230 230 231 232 232 233 234 235 236 238 239 239 240 241 243 246 247 248 249 250 251 253 254 257 260 263 264 266 267 268 269 269 269 270 271 272 273 273 274 275 275 275
188 188 188 189 189 188 190 192 191 191 192 193 195 196 196 197 199 201 202 201 200 201 204 205 206 208 207 208 211 215 217 216 215 217 217 216 218 218 217 217 217 220 226 229 229 230 231 231 232 233 234 235 237 238 239 240 241 242 244 247 249 250 251 253 254 256 257 259 261 263 264 266 266 267 268 269 270 271 272 274 275 276 276 277 278 278
186 188 187 187 188 189 191 190 189 189 191 191 193 196 197 198 199 199 199 198 199 202 205 206 206 208 208 208 211 214 216 215 215 217 216 214 215 217 217 217 218 223 229 231 230 230 230 231 232 234 235 236 237 239 241 242 243 244 246 249 251 253 255 256 257 258 260 261 262 263 264 265 266 267 267 269 270 272 273 274 275 277 278 279 280 280
183 185 186 187 188 190 191 190 188 188 190 191 193 195 196 197 199 199 198 198 198 201 204 206 206 208 208 208 211 214 216 216 215 217 217 216 216 216 216 216 218 224 230 230 229 230 231 232 234 235 237 238 240 242 243 244 246 248 249 252 254 256 257 259 260 261 261 262 263 264 265 265 266 266 268 269 270 272 274 275 277 279 280 281 281 281
184 183 185 187 188 190 190 189 188 188 189 192 193 194 196 197 198 198 198 198 199 202 206 208 208 209 209 209 212 214 216 217 216 217 218 218 217 216 217 217 218 224 228 229 229 231 233 234 236 238 239 241 242 244 245 247 249 250 252 254 256 258 259 260 262 262 263 264 264 265 265 266 266 267 268 270 271 273 275 276 278 280 281 281 282 283
186 183 184 186 187 188 188 188 188 188 189 191 192 193 195 196 197 197 197 197 199 202 206 208 209 212 212 211 213 215 217 218 217 218 219 219 219 219 219 221 222 225 228 229 230 232 233 235 237 238 240 242 244 246 247 249 251 252 253 255 257 258 260 261 263 263 264 265 265 265 266 266 267 268 269 270 272 273 275 278 280 281 282 283 283 285
185 183 184 187 186 186 186 186 187 188 189 190 192 193 194 195 196 196 197 198 200 203 205 206 207 210 212 212 213 215 218 218 218 218 220 220 221 221 221 223 225 227 229 229 231 232 234 236 238 239 242 243 245 246 248 249 251 252 254 256 257 259 260 261 262 263 264 264 265 265 266 267 268 269 270 271 272 275 277 280 281 282 283 284 285 287
184 184 185 187 186 184 185 186 187 188 188 189 191 193 193 193 194 196 197 199 202 204 205 206 207 210 211 211 212 214 217 218 218 219 220 221 223 224 224 225 227 229 230 231 233 234 236 238 239 240 242 243 244 246 247 249 251 253 255 256 257 259 259 260 261 262 263 264 264 265 265 266 268 269 271 272 275 277 279 280 281 282 283 284 286 287
183 185 185 185 186 184 185 186 186 187 187 189 190 192 193 193 194 195 196 199 203 205 206 206 207 210 211 211 212 214 216 218 219 219 221 223 225 226 226 227 228 229 230 232 234 235 236 237 238 239 241 243 245 247 248 250 252 254 256 257 258 259 260 261 262 263 263 264 264 264 265 266 268 270 272 274 275 277 278 279 280 281 283 284 285 286
182 184 183 184 185 185 184 185 186 186 187 189 191 192 193 193 194 195 196 200 203 205 206 206 207 209 210 211 212 214 216 218 219 219 221 223 226 227 227 228 229 230 231 232 234 235 236 237 239 241 243 245 246 248 250 252 253 256 257 258 259 260 262 263 264 264 265 265 265 265 265 266 268 270 272 273 274 276 278 279 281 282 283 284 285 286
181 183 183 183 183 183 183 184 185 186 188 190 192 193 193 194 195 195 197 201 204 205 206 207 208 209 210 210 211 213 215 216 218 219 221 225 228 229 228 229 230 232 233 233 234 235 237 239 241 242 244 245 246 248 250 252 254 256 257 259 260 262 263 264 265 265 266 266 266 266 266 267 268 270 271 273 275 277 278 280 281 282 283 285 286 287
180 182 183 183 182 182 183 184 186 188 190 191 192 193 194 195 196 197 199 202 204 206 207 207 207 210 211 212 212 212 214 215 217 219 221 225 229 230 230 231 232 233 234 234 235 235 236 238 240 241 242 244 246 249 251 253 254 256 258 260 261 262 263 263 264 265 266 266 266 266 266 267 268 270 271 273 275 277 279 280 281 282 284 285 287 287
180 181 182 182 182 182 183 185 187 189 190 192 193 194 195 196 197 198 200 203 205 206 206 206 206 209 212 213 213 214 215 216 218 220 221 224 228 230 230 231 232 233 234 235 235 236 237 238 240 241 244 246 248 250 252 254 255 256 257 259 260 261 262 263 264 265 265 265 265 265 266 267 268 269 271 273 275 277 279 280 281 282 284 285 286 287
181 181 182 182 182 184 185 186 188 190 192 193 195 196 197 197 198 200 202 205 207 207 205 205 206 209 211 213 213 214 215 215 218 221 222 223 227 229 230 231 232 233 235 236 237 238 239 241 243 245 246 249 251 253 254 255 256 257 257 259 260 261 262 264 265 265 264 264 264 265 266 267 268 269 271 272 274 276 278 279 281 282 284 285 286 286
182 182 183 182 183 185 186 187 189 191 193 195 196 197 199 199 200 202 204 206 208 207 206 206 207 209 211 212 212 213 214 215 218 221 222 224 227 229 230 231 233 234 236 238 240 241 243 245 247 248 250 252 254 254 255 257 258 258 259 259 260 261 262 263 263 263 263 264 265 266 267 268 269 270 271 272 274 275 277 279 281 282 283 284 285 286
184 184 183 184 184 185 186 188 191 193 195 197 198 199 199 200 202 203 205 208 209 208 208 208 208 209 210 211 213 214 216 217 219 221 223 225 228 230 232 233 235 236 239 241 242 244 246 247 249 251 253 254 255 256 257 258 259 260 260 260 260 261 262 262 263 263 264 265 266 267 268 269 270 270 270 271 272 274 277 279 281 282 283 284 285 286
185 185 185 185 186 186 187 190 193 195 197 199 200 201 201 201 203 205 207 210 211 210 210 211 211 211 211 211 213 216 218 220 221 223 225 227 230 233 235 237 238 239 241 243 244 246 248 249 251 253 254 255 256 257 258 259 260 260 260 260 261 262 262 263 264 265 265 265 266 267 268 268 269 269 269 271 272 274 277 279 280 282 283 284 285 286
187 187 186 187 187 187 188 191 194 196 198 200 202 204 204 203 205 207 210 212 212 212 213 214 214 214 213 214 216 218 221 223 225 226 228 230 232 235 237 239 241 242 243 244 245 247 249 250 252 253 253 253 255 256 258 259 260 260 260 261 262 262 263 264 265 265 265 266 266 267 268 269 269 270 271 272 274 276 277 278 280 281 283 284 285 286
190 189 188 188 189 189 190 193 195 197 198 200 203 205 206 206 206 208 212 214 214 214 215 216 217 216 215 216 219 222 224 226 228 229 231 232 234 236 237 239 241 243 244 246 247 248 249 250 250 250 250 252 253 255 257 258 259 260 261 261 262 263 264 265 266 266 267 267 267 268 269 269 270 271 272 274 275 277 277 278 279 280 281 283 284 285
192 192 191 190 190 192 193 194 196 197 197 200 204 206 207 208 209 210 213 215 216 216 217 218 219 219 217 218 220 224 227 230 232 233 234 234 236 238 238 239 240 241 243 244 246 248 249 249 250 250 251 252 254 256 257 259 259 260 261 262 263 264 266 266 267 267 267 267 267 267 268 269 270 272 273 275 276 277 278 278 278 279 280 281 282 284
194 194 194 193 192 193 195 196 197 197 197 200 204 207 208 209 211 212 215 217 218 219 220 220 221 222 221 220 221 223 227 230 233 234 235 236 237 238 239 240 240 241 242 243 244 245 247 249 250 252 253 254 256 257 258 259 260 261 261 262 263 264 266 267 267 267 268 268 268 268 268 269 270 271 273 275 276 278 278 278 278 278 279 280 281 283
196 196 196 196 195 195 196 199 200 199 198 201 205 208 209 210 211 213 215 218 220 222 222 223 223 224 224 224 223 223 225 229 231 233 236 238 238 239 241 241 242 243 244 245 246 247 248 249 251 252 254 256 257 258 259 260 261 262 263 264 264 265 266 267 268 268 268 269 270 270 269 270 270 271 274 276 277 278 278 278 277 277 277 279 280 282
196 196 197 198 198 198 198 200 201 201 200 202 207 211 211 212 212 213 214 216 219 222 224 224 225 225 226 226 226 227 228 231 233 235 237 239 241 242 243 243 244 245 246 247 248 249 249 250 252 253 254 256 257 258 259 260 261 262 264 265 265 266 267 267 268 268 269 270 271 271 271 271 271 273 275 277 278 278 278 277 277 276 276 278 280 282
194 194 198 199 199 200 201 201 203 204 202 203 208 212 213 214 215 215 215 216 218 222 225 226 227 227 228 228 228 229 230 232 234 236 238 240 242 243 245 245 245 246 247 248 249 250 251 252 253 254 255 256 257 259 260 261 262 263 264 265 266 266 267 268 268 269 269 270 271 272 273 273 272 273 275 277 277 278 278 277 277 276 276 278 279 281
188 190 197 201 201 202 203 203 204 206 205 205 208 211 213 216 218 219 219 219 220 222 225 227 229 230 230 230 230 230 230 232 234 236 238 240 242 243 245 246 246 247 248 249 250 250 251 252 253 254 255 256 257 258 260 261 262 263 264 265 266 266 267 267 268 268 269 270 271 273 273 273 272 273 275 277 277 277 277 277 277 276 276 276 278 280
Height
10441 10449 10459 10473 10491 10509 10523 10537 10552 10560 10559 10561 10566 10570 10578 10586 10594 10605 10609 10614 10626 10631 10635 10648 10655 10654 10655 10656 10655 10666 10688 10691 10685 10686 10692 10702 10706 10711 10718 10722 10728 10733 10735 10738 10739 10739 10742 10747 10752 10757 10761 10763 10764 10765 10766 10766 10765 10766 10768 10771 10773 10774 10774 10775 10775 10777 10779 10782 10784 10782 10779 10779 10779 10779 10779 10779 10779 10779 10780 10780 10779 10778 10778 10780 10781 10782
10425 10434 10448 10466 10486 10503 10514 10524 10534 10538 10541 10547 10556 10565 10574 10582 10589 10598 10602 10606 10619 10627 10630 10639 10643 10642 10647 10649 10652 10665 10680 10683 10678 10679 10689 10698 10702 10707 10713 10717 10722 10727 10731 10736 10736 10736 10739 10743 10749 10754 10757 10759 10759 10760 10760 10759 10760 10762 10766 10768 10770 10770 10771 10771 10772 10775 10777 10780 10782 10777 10773 10774 10775 10775 10775 10775 10775 10774 10775 10774 10773 10773 10773 10774 10775 10776
10415 10427 10444 10462 10479 10490 10496 10506 10516 10524 10531 10539 10550 10560 10567 10577 10584 10589 10595 10599 10612 10624 10624 10629 10634 10635 10642 10643 10647 10660 10672 10677 10672 10672 10685 10693 10696 10702 10706 10711 10717 10722 10729 10733 10732 10732 10735 10739 10745 10750 10753 10755 10755 10754 10754 10754 10756 10760 10764 10765 10766 10766 10767 10768 10769 10772 10774 10777 10777 10773 10770 10771 10772 10771 10771 10771 10770 10769 10769 10768 10768 10768 10768 10767 10768 10770
10407 10421 10439 10454 10462 10468 10478 10490 10503 10513 10520 10528 10541 10552 10561 10572 10577 10582 10592 10595 10607 10622 10619 10619 10625 10627 10632 10634 10641 10656 10666 10669 10665 10667 10681 10688 10691 10697 10701 10708 10714 10719 10727 10729 10728 10728 10731 10735 10741 10746 10749 10750 10750 10749 10748 10750 10754 10759 10761 10762 10762 10762 10763 10764 10765 10767 10770 10772 10771 10769 10767 10767 10767 10768 10767 10766 10765 10765 10764 10764 10763 10763 10762 10762 10762 10764
10399 10417 10430 10437 10440 10448 10463 10477 10492 10502 10509 10520 10534 10546 10555 10566 10572 10577 10586 10589 10600 10614 10612 10609 10615 10619 10626 10632 10641 10653 10659 10660 10661 10665 10677 10684 10688 10693 10699 10705 10711 10718 10723 10724 10723 10724 10726 10731 10737 10742 10744 10744 10744 10743 10743 10747 10753 10757 10759 10758 10757 10757 10758 10759 10761 10761 10764 10766 10765 10764 10763 10763 10763 10763 10763 10762 10761 10760 10759 10759 10758 10758 10757 10756 10756 10758
10392 10411 10415 10416 10423 10436 10452 10466 10480 10492 10501 10514 10529 10541 10550 10559 10567 10570 10575 10582 10591 10604 10608 10604 10609 10618 10626 10631 10638 10647 10652 10654 10657 10663 10673 10680 10683 10689 10696 10701 10708 10714 10718 10719 10719 10719 10722 10727 10733 10737 10738 10738 10738 10736 10739 10746 10750 10752 10755 10754 10752 10752 10752 10755 10756 10755 10757 10758 10758 10758 10758 10759 10759 10758 10757 10757 10755 10754 10754 10753 10753 10752 10751 10750 10751 10752
10382 10398 10395 10397 10413 10427 10442 10456 10470 10484 10493 10508 10525 10537 10543 10550 10558 10562 10568 10578 10587 10600 10606 10599 10602 10614 10619 10625 10633 10641 10648 10650 10653 10660 10668 10674 10679 10685 10691 10697 10704 10709 10712 10714 10713 10714 10719 10724 10728 10731 10732 10732 10731 10731 10737 10744 10747 10749 10751 10750 10747 10747 10749 10752 10749 10747 10749 10750 10750 10752 10754 10756 10754 10752 10751 10751 10750 10749 10748 10748 10747 10747 10746 10745 10746 10746
10376 10385 10380 10388 10406 10418 10431 10446 10461 10475 10485 10502 10520 10527 10534 10544 10554 10560 10564 10574 10585 10593 10593 10587 10594 10604 10610 10621 10629 10634 10641 10644 10648 10657 10664 10669 10676 10681 10685 10693 10699 10703 10706 10707 10706 10709 10715 10720 10723 10725 10727 10727 10725 10729 10736 10741 10745 10747 10746 10742 10741 10743 10746 10747 10743 10742 10745 10745 10745 10747 10750 10751 10748 10745 10746 10745 10744 10744 10743 10742 10742 10741 10741 10741 10741 10741
10371 10374 10374 10385 10398 10408 10422 10437 10453 10466 10478 10497 10513 10518 10528 10539 10548 10556 10560 10568 10577 10577 10577 10582 10589 10597 10608 10620 10624 10627 10636 10641 10647 10655 10660 10666 10672 10676 10682 10688 10693 10696 10698 10699 10701 10705 10711 10715 10718 10721 10722 10721 10722 10728 10733 10740 10742 10741 10739 10735 10736 10741 10742 10741 10739 10741 10743 10741 10741 10744 10747 10747 10743 10741 10741 10740 10740 10740 10739 10738 10737 10737 10737 10737 10737 10737
10361 10364 10371 10379 10390 10402 10416 10431 10444 10456 10472 10490 10502 10510 10519 10529 10538 10546 10550 10556 10563 10563 10571 10582 10587 10597 10611 10616 10617 10625 10636 10643 10647 10652 10655 10660 10666 10672 10677 10682 10686 10689 10692 10693 10696 10700 10706 10711 10714 10716 10716 10716 10720 10724 10730 10738 10737 10732 10732 10730 10731 10736 10737 10736 10737 10738 10739 10738 10738 10741 10743 10742 10739 10739 10738 10737 10736 10736 10735 10734 10733 10733 10733 10733 10734 10733
10349 10355 10363 10371 10385 10399 10410 10423 10435 10449 10466 10480 10491 10500 10509 10520 10529 10536 10541 10545 10548 10556 10570 10582 10589 10599 10606 10608 10617 10628 10636 10640 10642 10645 10651 10656 10662 10667 10671 10675 10680 10684 10687 10688 10690 10696 10702 10707 10710 10710 10710 10711 10715 10719 10726 10732 10730 10726 10727 10724 10724 10731 10734 10733 10733 10733 10734 10735 10735 10737 10737 10737 10736 10736 10735 10734 10733 10732 10731 10731 10730 10730 10729 10730 10730 10729
10339 10347 10356 10367 10380 10392 10402 10415 10430 10446 10459 10469 10480 10489 10498 10510 10518 10526 10531 10529 10538 10559 10573 10582 10589 10593 10599 10608 10619 10626 10630 10632 10635 10641 10647 10652 10657 10662 10666 10670 10675 10678 10680 10681 10686 10693 10698 10703 10704 10703 10704 10706 10710 10715 10720 10726 10725 10722 10721 10719 10721 10728 10731 10729 10727 10727 10729 10731 10731 10732 10732 10732 10732 10731 10731 10730 10729 10728 10728 10728 10727 10727 10726 10726 10726 10725
10335 10344 10354 10364 10373 10384 10397 10410 10423 10435 10446 10458 10470 10479 10489 10499 10507 10514 10517 10522 10546 10571 10576 10579 10585 10590 10601 10611 10614 10620 10625 10628 10632 10637 10641 10645 10649 10654 10659 10665 10669 10672 10674 10676 10682 10690 10695 10698 10698 10696 10699 10702 10706 10711 10715 10720 10720 10716 10716 10717 10719 10724 10727 10725 10723 10723 10725 10727 10727 10726 10726 10727 10727 10726 10727 10726 10725 10725 10724 10724 10723 10723 10722 10722 10721 10720
10334 10339 10347 10356 10364 10377 10391 10403 10413 10423 10435 10449 10460 10472 10484 10492 10499 10508 10518 10538 10562 10571 10569 10574 10581 10589 10600 10604 10606 10616 10622 10623 10627 10631 10635 10640 10643 10648 10654 10658 10661 10664 10668 10673 10679 10685 10690 10691 10691 10691 10695 10698 10702 10706 10711 10713 10713 10711 10713 10714 10716 10720 10722 10720 10719 10719 10721 10722 10722 10721 10722 10723 10723 10723 10723 10722 10722 10722 10721 10720 10719 10719 10718 10717 10717 10716
10332 10337 10346 10354 10363 10375 10386 10397 10408 10419 10434 10447 10459 10475 10485 10492 10505 10520 10537 10554 10563 10563 10565 10570 10577 10588 10597 10599 10604 10614 10616 10617 10622 10627 10631 10635 10639 10644 10648 10652 10656 10661 10665 10671 10676 10681 10684 10685 10686 10688 10691 10694 10698 10702 10706 10707 10705 10706 10708 10710 10712 10715 10717 10716 10715 10715 10716 10716 10716 10717 10718 10719 10719 10718 10718 10718 10719 10718 10717 10717 10716 10715 10714 10714 10713 10712
10327 10335 10344 10352 10361 10373 10384 10395 10406 10419 10433 10446 10460 10474 10484 10496 10514 10529 10540 10549 10551 10554 10558 10564 10575 10586 10591 10594 10601 10608 10611 10613 10618 10623 10626 10631 10636 10640 10644 10650 10655 10659 10664 10669 10673 10677 10679 10680 10681 10683 10686 10690 10694 10698 10701 10700 10699 10700 10703 10705 10708 10711 10711 10710 10709 10709 10710 10711 10711 10712 10713 10713 10714 10713 10714 10714 10715 10714 10712 10712 10712 10711 10710 10710 10709 10708
10324 10333 10340 10348 10358 10369 10381 10391 10404 10420 10432 10440 10453 10467 10482 10498 10511 10519 10527 10532 10536 10543 10551 10563 10574 10580 10584 10591 10596 10603 10609 10610 10615 10620 10623 10628 10632 10636 10642 10649 10653 10657 10662 10666 10669 10672 10674 10675 10676 10678 10682 10686 10690 10694 10695 10694 10693 10695 10698 10701 10703 10704 10703 10702 10702 10705 10707 10707 10707 10708 10707 10708 10708 10708 10709 10709 10710 10710 10708 10708 10707 10706 10705 10705 10704 10703
10322 10330 10338 10348 10358 10369 10379 10388 10403 10419 10427 10435 10451 10470 10486 10495 10501 10509 10517 10522 10529 10540 10551 10562 10569 10574 10584 10590 10593 10603 10608 10608 10612 10617 10619 10624 10629 10634 10641 10645 10649 10654 10658 10661 10665 10666 10668 10670 10671 10674 10677 10680 10685 10688 10689 10689 10689 10691 10695 10697 10696 10695 10695 10697 10699 10701 10702 10702 10703 10703 10704 10704 10703 10703 10704 10704 10705 10705 10705 10704 10702 10701 10700 10700 10699 10699
10320 10326 10335 10344 10354 10366 10377 10387 10399 10408 10417 10436 10458 10474 10482 10485 10491 10500 10508 10517 10530 10540 10549 10558 10565 10573 10582 10586 10592 10602 10604 10603 10608 10613 10616 10622 10627 10633 10638 10641 10645 10650 10654 10658 10660 10660 10663 10664 10666 10668 10671 10675 10680 10682 10684 10685 10685 10688 10691 10691 10690 10690 10691 10694 10695 10696 10697 10698 10698 10699 10699 10699 10699 10699 10699 10700 10700 10701 10701 10700 10698 10697 10696 10695 10695 10695
10321 10327 10334 10342 10351 10360 10370 10382 10394 10402 10416 10437 10452 10461 10470 10478 10489 10500 10510 10523 10533 10540 10549 10557 10562 10570 10578 10583 10590 10596 10596 10597 10603 10608 10612 10618 10624 10629 10632 10635 10641 10646 10650 10653 10653 10655 10657 10658 10660 10663 10667 10672 10675 10678 10681 10681 10682 10684 10686 10686 10686 10687 10689 10689 10690 10692 10693 10693 10694 10694 10694 10694 10694 10694 10695 10695 10695 10696 10696 10696 10694 10693 10692 10691 10691 10690
10322 10328 10334 10341 10348 10356 10365 10380 10393 10403 10416 10430 10439 10448 10457 10467 10480 10495 10510 10523 10530 10537 10548 10555 10559 10568 10576 10580 10585 10590 10590 10592 10598 10603 10607 10613 10618 10622 10626 10632 10637 10641 10645 10647 10648 10650 10652 10654 10657 10660 10664 10668 10671 10674 10677 10678 10679 10680 10680 10682 10683 10685 10685 10686 10687 10687 10687 10688 10689 10689 10689 10690 10690 10690 10690 10691 10691 10691 10691 10691 10690 10689 10688 10687 10687 10686
10322 10328 10334 10340 10349 10358 10369 10380 10392 10403 10414 10427 10438 10448 10455 10465 10480 10494 10506 10517 10526 10537 10546 10552 10558 10567 10571 10575 10581 10585 10586 10589 10596 10600 10603 10609 10614 10618 10625 10630 10633 10636 10640 10643 10644 10645 10648 10651 10655 10658 10661 10665 10667 10670 10673 10675 10676 10676 10676 10678 10680 10681 10682 10682 10683 10683 10684 10685 10685 10685 10685 10685 10686 10686 10686 10686 10686 10686 10686 10686 10686 10685 10685 10684 10683 10682
10321 10327 10335 10343 10352 10362 10371 10377 10387 10401 10413 10425 10438 10450 10461 10475 10489 10500 10510 10519 10528 10537 10544 10549 10556 10561 10566 10572 10578 10582 10583 10588 10593 10596 10601 10606 10611 10616 10622 10626 10629 10633 10637 10640 10641 10642 10646 10650 10653 10656 10659 10661 10664 10666 10668 10671 10672 10671 10672 10674 10675 10677 10678 10678 10679 10680 10681 10681 10681 10681 10681 10681 10681 10681 10681 10681 10681 10681 10681 10681 10681 10681 10680 10679 10678 10677
10321 10327 10335 10343 10351 10360 10369 10378 10388 10399 10411 10423 10435 10448 10462 10477 10490 10500 10510 10519 10527 10533 10539 10545 10551 10556 10561 10569 10575 10577 10578 10582 10587 10591 10596 10601 10607 10613 10619 10623 10628 10632 10636 10637 10637 10639 10644 10648 10651 10653 10655 10657 10660 10662 10664 10666 10668 10668 10668 10669 10671 10673 10674 10675 10675 10674 10676 10677 10677 10677 10677 10677 10677 10677 10676 10676 10676 10676 10676 10676 10676 10676 10675 10674 10673 10672
10322 10328 10335 10343 10350 10357 10364 10373 10383 10394 10408 10423 10433 10444 10459 10475 10486 10493 10502 10511 10519 10528 10535 10542 10549 10555 10561 10567 10570 10569 10569 10575 10581 10586 10591 10598 10605 10611 10617 10621 10626 10630 10633 10633 10633 10637 10642 10645 10648 10649 10651 10653 10655 10657 10660 10662 10664 10665 10665 10665 10667 10669 10670 10671 10671 10669 10670 10672 10673 10673 10673 10672 10672 10672 10672 10672 10671 10671 10671 10671 10671 10670 10669 10669 10668 10667
10323 10330 10337 10345 10353 10360 10368 10375 10383 10394 10409 10422 10431 10443 10458 10472 10481 10488 10496 10505 10514 10524 10532 10538 10545 10551 10556 10561 10563 10562 10565 10572 10580 10583 10589 10597 10604 10609 10614 10619 10622 10627 10630 10629 10629 10634 10639 10642 10644 10645 10646 10649 10651 10653 10656 10658 10661 10662 10662 10662 10663 10665 10666 10667 10666 10665 10666 10668 10669 10669 10668 10668 10668 10668 10667 10667 10666 10666 10666 10666 10666 10665 10664 10664 10663 10662
10329 10335 10343 10350 10358 10369 10380 10389 10398 10408 10418 10425 10435 10449 10462 10472 10481 10488 10497 10506 10516 10524 10529 10534 10541 10545 10549 10554 10557 10558 10563 10571 10578 10582 10588 10596 10602 10606 10612 10616 10619 10623 10624 10625 10627 10632 10635 10638 10640 10640 10642 10645 10648 10650 10652 10655 10657 10659 10659 10658 10659 10660 10662 10662 10663 10663 10663 10664 10665 10665 10664 10664 10663 10663 10663 10662 10662 10661 10661 10661 10660 10660 10659 10658 10658 10657
10337 10343 10349 10357 10365 10373 10379 10388 10399 10409 10418 10428 10443 10455 10463 10470 10477 10485 10497 10509 10519 10524 10526 10531 10537 10541 10545 10550 10553 10555 10560 10568 10575 10579 10586 10594 10599 10604 10609 10613 10617 10619 10620 10622 10626 10629 10631 10633 10634 10636 10639 10642 10644 10646 10648 10651 10653 10654 10655 10654 10654 10656 10657 10658 10659 10660 10660 10661 10661 10660 10660 10659 10659 10659 10658 10657 10657 10657 10656 10656 10656 10655 10654 10654 10653 10652
10343 10349 10355 10362 10369 10374 10379 10386 10396 10407 10418 10430 10442 10450 10458 10467 10476 10486 10498 10507 10515 10520 10524 10529 10534 10536 10540 10545 10548 10551 10557 10564 10571 10577 10583 10590 10595 10600 10606 10610 10614 10616 10616 10619 10622 10624 10626 10628 10629 10632 10635 10638 10640 10642 10644 10646 10648 10650 10651 10650 10650 10652 10653 10654 10655 10656 10656 10656 10656 10655 10655 10655 10655 10654 10654 10653 10653 10652 10652 10652 10651 10650 10649 10649 10648 10647
10346 10353 10359 10364 10370 10375 10382 10392 10401 10411 10422 10430 10437 10447 10458 10470 10479 10487 10495 10502 10509 10515 10517 10520 10525 10530 10536 10541 10544 10548 10554 10561 10569 10575 10581 10586 10592 10597 10602 10605 10609 10611 10611 10614 10618 10620 10622 10624 10626 10629 10632 10634 10636 10637 10640 10642 10643 10645 10646 10646 10647 10648 10648 10649 10649 10651 10651 10651 10651 10651 10651 10651 10650 10650 10650 10649 10649 10648 10648 10647 10647 10646 10645 10644 10643 10642
10348 10354 10359 10365 10371 10379 10388 10397 10404 10412 10421 10430 10439 10450 10460 10467 10475 10484 10493 10501 10509 10513 10515 10519 10526 10531 10535 10539 10543 10548 10553 10560 10568 10573 10577 10583 10588 10592 10596 10601 10605 10605 10607 10610 10614 10616 10618 10620 10623 10626 10628 10630 10631 10633 10636 10637 10639 10641 10642 10642 10643 10643 10644 10644 10644 10646 10646 10646 10647 10646 10646 10646 10646 10646 10646 10645 10644 10644 10643 10642 10642 10641 10640 10639 10638 10637
10351 10357 10362 10367 10373 10381 10391 10400 10407 10414 10422 10430 10440 10449 10458 10467 10477 10486 10494 10502 10507 10510 10514 10522 10528 10531 10534 10539 10544 10549 10553 10558 10565 10570 10574 10579 10583 10587 10592 10596 10599 10600 10603 10607 10610 10612 10614 10616 10620 10622 10623 10625 10628 10630 10632 10633 10635 10636 10637 10638 10639 10639 10639 10640 10640 10641 10641 10641 10641 10641 10641 10641 10641 10641 10641 10640 10640 10639 10638 10637 10637 10636 10635 10634 10633 10632
10354 10360 10365 10370 10375 10383 10392 10400 10408 10415 10423 10432 10442 10451 10460 10470 10479 10486 10494 10499 10503 10507 10512 10517 10522 10525 10530 10536 10541 10546 10550 10554 10561 10566 10569 10574 10578 10583 10587 10590 10594 10597 10600 10603 10605 10608 10610 10613 10616 10618 10620 10622 10624 10626 10628 10629 10630 10632 10633 10634 10635 10635 10635 10636 10636 10636 10636 10636 10636 10636 10636 10636 10636 10636 10635 10635 10634 10634 10633 10633 10631 10630 10630 10629 10628 10628
10357 10362 10366 10372 10379 10386 10393 10401 10409 10417 10426 10436 10446 10454 10462 10470 10478 10486 10492 10497 10501 10505 10509 10513 10517 10521 10525 10531 10537 10542 10546 10551 10557 10561 10565 10570 10575 10578 10582 10586 10590 10594 10596 10599 10602 10604 10607 10611 10613 10615 10616 10618 10619 10621 10623 10625 10626 10627 10628 10629 10630 10631 10631 10631 10632 10632 10632 10632 10632 10632 10632 10631 10631 10631 10630 10630 10629 10629 10628 10627 10626 10625 10625 10624 10624 10623
10360 10364 10368 10375 10382 10388 10395 10404 10412 10422 10432 10440 10447 10453 10461 10469 10475 10482 10488 10494 10497 10500 10504 10510 10514 10517 10522 10528 10534 10539 10544 10548 10553 10558 10563 10569 10572 10575 10579 10583 10587 10589 10592 10595 10598 10601 10604 10607 10608 10609 10611 10613 10615 10617 10619 10620 10622 10623 10624 10625 10626 10626 10626 10627 10628 10628 10627 10627 10627 10627 10627 10626 10626 10626 10625 10625 10624 10624 10623 10622 10621 10621 10620 10620 10619 10618
10362 10367 10372 10378 10385 10392 10400 10409 10418 10427 10434 10440 10446 10453 10460 10467 10473 10480 10487 10490 10492 10495 10501 10505 10509 10513 10519 10526 10531 10536 10541 10545 10550 10556 10562 10565 10568 10572 10576 10580 10582 10585 10588 10592 10595 10598 10600 10602 10603 10605 10607 10608 10610 10612 10614 10616 10618 10619 10619 10620 10620 10621 10622 10623 10623 10623 10623 10623 10623 10622 10622 10622 10621 10621 10620 10620 10619 10618 10618 10617 10616 10615 10615 10615 10614 10613
10366 10370 10375 10380 10388 10396 10405 10413 10421 10428 10433 10439 10446 10453 10459 10466 10473 10480 10484 10486 10489 10493 10497 10501 10506 10512 10518 10524 10529 10534 10538 10543 10548 10553 10559 10562 10565 10569 10573 10576 10578 10582 10585 10588 10590 10593 10596 10597 10599 10600 10602 10603 10605 10608 10610 10612 10614 10615 10615 10615 10616 10617 10617 10618 10618 10618 10618 10618 10618 10618 10618 10617 10616 10615 10615 10614 10614 10613 10612 10612 10611 10610 10610 10609 10608 10607
10368 10373 10379 10384 10391 10398 10406 10414 10420 10426 10432 10440 10446 10453 10459 10465 10471 10475 10478 10481 10485 10489 10493 10500 10508 10514 10518 10522 10526 10531 10536 10542 10547 10551 10556 10560 10563 10566 10569 10571 10575 10578 10580 10582 10585 10589 10591 10592 10593 10595 10596 10599 10601 10604 10607 10609 10610 10610 10610 10610 10610 10611 10611 10612 10613 10613 10613 10613 10613 10612 10612 10612 10611 10610 10609 10609 10609 10608 10607 10607 10606 10606 10605 10604 10603 10602
10372 10376 10381 10387 10394 10400 10405 10412 10419 10427 10434 10441 10447 10452 10457 10462 10467 10472 10475 10478 10480 10484 10491 10501 10508 10512 10515 10519 10524 10530 10535 10541 10546 10549 10553 10556 10558 10561 10564 10567 10570 10573 10575 10577 10580 10583 10584 10586 10588 10590 10593 10595 10598 10601 10603 10604 10604 10605 10605 10605 10605 10605 10606 10607 10607 10608 10608 10608 10607 10607 10607 10606 10606 10605 10604 10604 10603 10603 10602 10602 10601 10601 10600 10599 10598 10597
10374 10378 10382 10388 10396 10402 10407 10414 10421 10428 10435 10440 10446 10451 10455 10459 10464 10469 10473 10476 10479 10485 10494 10501 10505 10509 10513 10517 10523 10528 10534 10539 10542 10544 10548 10551 10553 10556 10560 10563 10565 10567 10569 10572 10575 10578 10580 10582 10584 10587 10589 10592 10595 10596 10597 10598 10598 10599 10599 10600 10600 10600 10601 10601 10602 10603 10603 10602 10602 10602 10601 10601 10600 10600 10600 10599 10598 10598 10597 10596 10596 10595 10594 10593 10593 10591
10376 10380 10384 10390 10396 10402 10410 10417 10422 10427 10433 10439 10443 10448 10454 10460 10465 10469 10473 10475 10480 10487 10494 10498 10502 10506 10510 10515 10522 10526 10530 10533 10535 10538 10543 10547 10549 10551 10554 10557 10560 10562 10565 10567 10571 10573 10576 10578 10580 10583 10586 10588 10590 10591 10592 10592 10593 10594 10594 10595 10595 10596 10596 10597 10597 10597 10597 10597 10596 10596 10596 10595 10595 10595 10594 10594 10593 10592 10592 10591 10590 10589 10588 10588 10587 10586
10377 10382 10387 10392 10397 10404 10412 10418 10422 10427 10432 10436 10441 10447 10454 10460 10465 10469 10473 10477 10481 10487 10491 10494 10499 10503 10507 10514 10520 10522 10523 10526 10529 10534 10539 10543 10544 10547 10549 10552 10555 10558 10561 10563 10566 10569 10572 10574 10576 10579 10581 10583 10584 10585 10586 10587 10588 10588 10589 10589 10590 10591 10592 10592 10591 10592 10592 10592 10591 10591 10591 10590 10590 10589 10588 10588 10587 10587 10586 10585 10585 10584 10583 10582 10581 10580
10380 10384 10389 10394 10399 10406 10413 10417 10422 10427 10432 10437 10443 10449 10455 10461 10466 10471 10474 10477 10481 10485 10489 10493 10496 10500 10506 10514 10517 10517 10519 10523 10527 10531 10535 10538 10541 10543 10545 10548 10552 10555 10557 10558 10561 10564 10567 10569 10572 10574 10576 10577 10578 10579 10581 10582 10582 10583 10583 10584 10585 10586 10586 10586 10586 10587 10587 10586 10586 10586 10586 10585 10584 10583 10582 10582 10582 10581 10581 10580 10579 10578 10577 10577 10576 10575
10382 10386 10391 10396 10402 10407 10413 10417 10422 10429 10434 10441 10448 10454 10458 10463 10467 10470 10473 10476 10480 10484 10488 10491 10494 10499 10507 10513 10513 10513 10516 10520 10524 10528 10531 10534 10537 10539 10541 10545 10548 10550 10551 10554 10557 10559 10561 10564 10567 10569 10570 10571 10572 10574 10575 10576 10577 10577 10578 10579 10580 10580 10580 10581 10581 10582 10581 10581 10581 10581 10580 10580 10579 10578 10577 10577 10576 10576 10576 10575 10574 10573 10572 10571 10570 10569
10384 10387 10392 10397 10403 10408 10413 10417 10423 10430 10436 10443 10449 10453 10457 10461 10464 10468 10471 10475 10479 10483 10487 10489 10491 10498 10506 10511 10511 10512 10515 10517 10520 10523 10527 10530 10533 10535 10538 10541 10543 10544 10546 10550 10552 10554 10556 10559 10561 10563 10564 10565 10567 10568 10569 10570 10571 10571 10572 10573 10574 10574 10575 10576 10576 10576 10576 10576 10576 10575 10575 10575 10574 10573 10572 10572 10571 10570 10570 10569 10569 10568 10567 10566 10565 10564
10385 10389 10393 10397 10403 10408 10413 10417 10422 10429 10436 10442 10447 10451 10455 10459 10462 10466 10469 10473 10476 10480 10484 10486 10489 10495 10502 10508 10510 10512 10512 10514 10517 10519 10522 10526 10530 10531 10533 10536 10538 10539 10542 10545 10547 10549 10551 10553 10554 10556 10558 10560 10561 10563 10564 10564 10565 10566 10567 10568 10568 10569 10570 10570 10570 10571 10571 10570 10570 10570 10569 10569 10568 10567 10566 10566 10565 10564 10563 10563 10563 10562 10561 10560 10559 10558
10386 10390 10394 10398 10402 10407 10413 10417 10421 10427 10434 10440 10444 10448 10452 10456 10460 10463 10467 10470 10473 10477 10480 10483 10486 10491 10497 10503 10508 10510 10510 10511 10513 10515 10517 10521 10524 10526 10528 10530 10532 10534 10537 10539 10541 10543 10545 10547 10549 10551 10553 10554 10556 10557 10558 10558 10559 10560 10561 10562 10563 10564 10564 10564 10565 10565 10564 10564 10564 10563 10563 10563 10563 10561 10560 10560 10559 10558 10557 10556 10556 10555 10554 10553 10552 10552
10387 10391 10395 10399 10403 10407 10412 10417 10421 10427 10433 10438 10441 10444 10447 10451 10455 10459 10463 10466 10469 10472 10475 10479 10483 10487 10492 10497 10502 10505 10506 10507 10509 10511 10514 10516 10518 10521 10523 10524 10526 10528 10531 10533 10535 10538 10540 10542 10544 10546 10547 10548 10549 10550 10551 10552 10553 10554 10555 10556 10557 10558 10558 10558 10559 10559 10558 10558 10557 10557 10557 10557 10557 10555 10554 10554 10553 10552 10551 10550 10550 10549 10547 10546 10546 10545
10385 10389 10394 10399 10404 10408 10412 10416 10421 10426 10432 10436 10439 10441 10444 10447 10450 10453 10457 10461 10464 10467 10470 10473 10478 10482 10486 10491 10495 10499 10501 10504 10506 10508 10510 10512 10513 10515 10517 10518 10521 10523 10525 10527 10529 10531 10534 10536 10538 10540 10541 10542 10543 10544 10544 10545 10546 10548 10549 10550 10551 10552 10552 10552 10553 10553 10552 10552 10551 10550 10549 10550 10550 10549 10548 10547 10546 10545 10544 10543 10543 10542 10540 10539 10539 10538
10384 10389 10393 10397 10402 10407 10411 10414 10418 10422 10427 10432 10435 10438 10441 10445 10448 10450 10453 10457 10460 10463 10466 10469 10472 10476 10480 10484 10489 10493 10497 10500 10501 10503 10506 10508 10509 10509 10510 10512 10515 10517 10519 10521 10523 10525 10528 10531 10533 10535 10536 10536 10537 10537 10538 10539 10541 10542 10543 10543 10544 10545 10546 10546 10546 10546 10546 10545 10545 10544 10543 10543 10543 10542 10542 10541 10540 10538 10537 10536 10536 10535 10534 10533 10532 10531
10383 10388 10391 10395 10399 10403 10407 10411 10414 10418 10423 10428 10431 10435 10439 10443 10445 10448 10451 10454 10457 10460 10463 10465 10468 10471 10475 10478 10483 10487 10491 10494 10496 10499 10501 10502 10503 10503 10504 10505 10508 10511 10513 10515 10517 10520 10522 10525 10528 10529 10530 10530 10531 10531 10532 10533 10534 10535 10536 10537 10537 10538 10539 10539 10539 10539 10539 10539 10538 10537 10537 10537 10536 10536 10535 10535 10533 10532 10531 10530 10529 10528 10528 10527 10526 10525